[[{"header":{"parameterUnit":"m.s-1","parameterCategory":1,"la1":30.2992,"la2":30.254,"lo1":-89.0895,"lo2":-89.0443,"dy":0.0025,"dx":0.0025,"nx":19,"ny":19,"refTime":"2026-04-07T21:00:00:Z","depth":0,"parameterNumber":2,"parameterNumberName":"U-component_of_WINDS"},"data":[0,0,0,-7.0484,-7.0487,-7.0606,-7.0606,-7.0799,-7.0801,0,0,0,0,0,0,0,0,0,0,0,-7.0473,-7.0475,-7.0483,-7.0487,-7.0606,-7.0606,-7.0799,-7.0801,0,0,0,0,0,0,0,0,0,0,0,-7.0472,-7.0474,-7.0477,-7.0488,-7.0605,-7.0606,-7.0798,-7.0694,0,0,0,0,0,0,0,0,0,0,-7.0572,-7.0585,-7.0474,-7.0477,-7.0488,-7.0605,-7.0606,-7.0689,-7.0701,-7.0763,0,-7.0824,0,-7.0816,-7.0817,-7.0818,0,0,0,-7.0469,-7.0575,-7.0585,-7.0477,-7.049,-7.0605,-7.0547,-7.0695,-7.0709,-7.078,-7.0826,-7.0832,-7.0819,-7.0818,-7.082,-7.1238,-7.1241,0,0,-7.0463,-7.0507,-7.0576,-7.0596,-7.0579,-7.0543,-7.0551,-7.0703,-7.0757,-7.0827,-7.0836,-7.0823,-7.082,-7.0822,-7.1236,-7.1239,0,0,0,-7.0456,-7.0504,-7.0509,-7.0589,-7.0607,-7.0547,-7.0556,-7.075,-7.0748,-7.0838,-7.0825,-7.0821,-7.0824,-7.1232,-7.1237,-7.1419,0,0,0,-7.0451,-7.0499,-7.0507,-7.0536,-7.0605,-7.068,-7.0601,-7.0738,-7.0753,-7.0824,-7.0821,-7.0826,-7.1229,-7.1235,-7.1408,-7.1499,0,0,0,-7.0457,-7.05,-7.0525,-7.0538,-7.059,-7.0676,-7.0682,-7.074,-7.0746,-7.0818,-7.0827,-7.1227,-7.1234,-7.1397,-7.1481,-7.1623,0,0,0,-7.0476,-7.0685,-7.0529,-7.0757,-7.059,-7.0788,-7.0681,-7.0826,-7.0909,-7.0822,-7.123,-7.1236,-7.1394,-7.147,-7.1612,-7.1752,-7.1814,0,0,-7.0765,-7.0721,-7.0852,-7.0716,-7.0954,-7.0766,-7.1031,-7.1064,-7.103,-7.1171,-7.1181,-7.1412,-7.148,-7.1621,-7.2143,-7.2192,0,0,0,-7.0959,-7.1054,-7.1107,-7.1189,-7.1219,-7.1254,-7.1242,-7.1255,-7.1372,-7.1112,-7.1499,-7.1538,-7.1619,-7.1684,-7.1726,-7.1794,-7.1268,-7.1267,-7.1266,-7.1433,-7.1378,-7.1592,-7.1553,-7.1633,-7.162,-7.1681,-7.1695,-7.1616,-7.1709,-7.1751,-7.2074,-7.2152,-7.2183,-7.2254,-7.1819,-7.182,-7.182,-7.1821,-7.1852,-7.1979,-7.187,-7.2038,-7.198,-7.2121,-7.2118,-7.2057,-7.2181,-7.2037,-7.2106,-7.1955,-7.2239,-7.2298,-7.1834,-7.1832,-7.183,-7.1829,-7.1828,-7.2157,-7.2209,-7.2221,-7.2334,-7.2428,-7.238,-7.2505,-7.2447,-7.2393,-7.2461,-7.25,-7.2497,-7.2488,-7.2484,-7.2485,-7.2486,-7.2487,-7.2488,-7.2488,-7.247,-7.2477,-7.2589,-7.2641,-7.2687,-7.274,-7.273,-7.2773,-7.2807,-7.2755,-7.2755,-7.2669,-7.2276,-7.2179,-7.2506,-7.2503,-7.25,-7.2499,-7.2498,-7.2918,-7.2808,-7.2981,-7.3027,-7.3084,-7.3182,-7.3107,-7.3201,-7.3229,-7.3293,-7.3192,-7.291,-7.2862,-7.2828,-7.2748,-7.3201,-7.3201,-7.3201,-7.3202,-7.3177,-7.3146,-7.3311,-7.3389,-7.3458,-7.3408,-7.3608,-7.3604,-7.3581,-7.3596,-7.3521,-7.341,-7.3378,-7.3348,-7.3303,-7.3228,-7.3793,-7.3794,-7.3794,-7.345,-7.3424,-7.3605,-7.3581,-7.3622,-7.3659,-7.3846,-7.3941,-7.3893,-7.3817,-7.3606,-7.3581,-7.34,-7.3344,-7.3264,-7.3195,-7.3055,0,0]},{"header":{"parameterUnit":"m.s-1","parameterCategory":1,"la1":30.2992,"la2":30.254,"lo1":-89.0895,"lo2":-89.0443,"dy":0.0025,"dx":0.0025,"nx":19,"ny":19,"refTime":"2026-04-07T21:00:00:Z","depth":0,"parameterNumber":3,"parameterNumberName":"V-component_of_WINDS"},"data":[0,0,0,-0.7223,-0.7223,-0.7233,-0.7233,-0.725,-0.7251,0,0,0,0,0,0,0,0,0,0,0,-0.7223,-0.7223,-0.7223,-0.7223,-0.7233,-0.7233,-0.725,-0.7251,0,0,0,0,0,0,0,0,0,0,0,-0.7223,-0.7223,-0.7224,-0.7223,-0.7233,-0.7233,-0.725,-0.7241,0,0,0,0,0,0,0,0,0,0,-0.7231,-0.7235,-0.7223,-0.7224,-0.7223,-0.7233,-0.7233,-0.724,-0.7242,-0.7248,0,-0.7255,0,-0.7253,-0.7252,-0.7252,0,0,0,-0.722,-0.7234,-0.7233,-0.7224,-0.7223,-0.7233,-0.7228,-0.7241,-0.7242,-0.725,-0.7255,-0.7256,-0.7253,-0.7252,-0.7252,-0.7298,-0.7299,0,0,-0.722,-0.7227,-0.7232,-0.7234,-0.7233,-0.7227,-0.7228,-0.7242,-0.7249,-0.7256,-0.7256,-0.7254,-0.7252,-0.7253,-0.7298,-0.7298,0,0,0,-0.722,-0.7227,-0.7226,-0.7234,-0.7235,-0.7228,-0.7228,-0.7248,-0.7247,-0.7256,-0.7254,-0.7253,-0.7253,-0.7298,-0.7298,-0.7321,0,0,0,-0.722,-0.7227,-0.7225,-0.723,-0.7235,-0.7242,-0.7234,-0.7246,-0.7247,-0.7254,-0.7253,-0.7253,-0.7297,-0.7298,-0.732,-0.7331,0,0,0,-0.7221,-0.7227,-0.723,-0.723,-0.7235,-0.7241,-0.7241,-0.7246,-0.7246,-0.7252,-0.7253,-0.7297,-0.7298,-0.7318,-0.7329,-0.7344,0,0,0,-0.7226,-0.7251,-0.723,-0.7257,-0.7235,-0.7255,-0.7241,-0.7256,-0.7264,-0.7253,-0.7297,-0.7298,-0.7318,-0.7327,-0.7343,-0.7359,-0.7366,0,0,-0.7261,-0.7255,-0.727,-0.7252,-0.7278,-0.7253,-0.7282,-0.7284,-0.7278,-0.7292,-0.7293,-0.732,-0.7329,-0.7344,-0.7404,-0.741,0,0,0,-0.7284,-0.7295,-0.73,-0.7308,-0.7309,-0.731,-0.7306,-0.7306,-0.7317,-0.7286,-0.733,-0.7335,-0.7343,-0.7351,-0.7355,-0.7362,-0.7302,-0.7302,-0.7302,-0.7346,-0.7336,-0.736,-0.7351,-0.7359,-0.7353,-0.7358,-0.7357,-0.7346,-0.7356,-0.736,-0.7398,-0.7407,-0.741,-0.7417,-0.7368,-0.7368,-0.7368,-0.7368,-0.7397,-0.741,-0.7393,-0.7411,-0.74,-0.7414,-0.7409,-0.74,-0.7412,-0.7395,-0.7402,-0.7383,-0.7417,-0.7423,-0.737,-0.737,-0.7369,-0.7369,-0.7369,-0.7436,-0.7441,-0.744,-0.7448,-0.7456,-0.7446,-0.7457,-0.7447,-0.7438,-0.7445,-0.7448,-0.7447,-0.7445,-0.7447,-0.7447,-0.7447,-0.7448,-0.7448,-0.7448,-0.7477,-0.7475,-0.7485,-0.7487,-0.7489,-0.7492,-0.7485,-0.7487,-0.7487,-0.7479,-0.7479,-0.7466,-0.7422,-0.7411,-0.745,-0.7449,-0.7449,-0.7449,-0.7449,-0.7532,-0.7518,-0.7534,-0.7537,-0.7536,-0.7544,-0.7531,-0.7536,-0.7536,-0.7542,-0.7527,-0.7496,-0.7489,-0.7485,-0.7476,-0.753,-0.753,-0.753,-0.753,-0.7565,-0.756,-0.7574,-0.7578,-0.7581,-0.757,-0.7588,-0.7582,-0.7574,-0.7574,-0.7564,-0.7551,-0.7547,-0.7543,-0.7538,-0.7529,-0.7595,-0.7595,-0.7595,-0.7598,-0.7593,-0.761,-0.7601,-0.76,-0.7599,-0.7615,-0.762,-0.7608,-0.7597,-0.7573,-0.757,-0.7549,-0.7542,-0.7531,-0.7523,-0.7507,0,0]}]]